Voltar ao catálogo

STARLINK-35502

AtivoComunicaçõesVLEO
NORAD 66435·PAYLOAD·🇺🇸 United States

Lançado Nov 11, 2025 de Cape Canaveral Space Force Station

Loading…

Próximas Passagens (próximas 24 horas)

TLE

AtualizadoSource: CelesTrak SupGP

Época: Sep 15, 2026, 02:31 UTC

1 66435C 25259P   26258.10534722  .00013072  00000+0  47348-3 0  2583
2 66435  42.9998 284.2526 0001242 261.5637 121.7139 15.27571854    15

Acompanhe STARLINK-35502 em tempo real com AllMySat

Download on the App Store